Location: Mason Neck State Park
(38.6428°N, 77.1981°W)
Time: 20:10:32
(UTC-04:00)

ISS - Visible Passes

Search period start: 26 September 2016 00:00
Search period end: 06 October 2016 00:00
Orbit: 400 x 410 km, 51.6° (Epoch: 27 September)

Date Brightness Start Highest point End Pass type
(mag) Time Alt. Az. Time Alt. Az. Time Alt. Az.
26 Sep -0.6 20:49:11 10° SSW 20:49:30 12° SSW 20:49:30 12° SSW visible
27 Sep -2.0 19:57:46 10° S 20:00:21 22° SE 20:00:33 22° SE visible
28 Sep -2.7 20:41:19 10° WSW 20:44:05 56° W 20:44:05 56° W visible
29 Sep -3.3 19:49:16 10° SW 19:52:28 59° SE 19:54:41 18° ENE visible
29 Sep 0.0 21:26:44 10° WNW 21:27:22 13° WNW 21:27:22 13° WNW visible
30 Sep -1.6 20:34:00 10° W 20:36:54 29° NNW 20:37:46 25° N visible
01 Oct -2.6 19:41:30 10° WSW 19:44:41 52° NW 19:47:53 10° NE visible
01 Oct 0.0 21:20:15 10° NW 21:20:42 11° NW 21:20:42 11° NW visible
02 Oct -0.8 20:27:07 10° WNW 20:29:22 17° NNW 20:30:48 13° N visible
03 Oct -1.3 19:34:15 10° W 19:37:00 25° NNW 19:39:46 10° NNE visible
04 Oct -0.5 20:20:42 10° NW 20:21:54 11° NNW 20:23:05 10° N visible
05 Oct -0.7 19:27:26 10° WNW 19:29:25 15° NNW 19:31:26 10° NNE visible
